Content
SEND FEEDBACK

Daily
Averages
Monthly
Summary
Canada

MONTREAL, QUEBEC


Home > North America > Canada > Quebec
Elevation: 118 feet     Latitude: 45 28N     Longitude: 073 45W

WEATHER
 
SELECT A DAY
Number of Records: 201,544;   Date Range: 1/1/95 - 10/24/14
 
SHARE

PRINT THIS DATA

[ ← Previous Day ]
WEATHER ALMANAC - MAY 17, 2013
[ Next Day → ]
[ °C ]   °F
Weather ElementAverageHighLow
Temperature56.1 °F66.2 °F (4:00 pm)44.6 °F (5:00 am)
Dewpoint41.2 °F44.6 °F (11:00 am)35.6 °F (5:00 pm)
Humidity57.9 %87 % (5:00 am)32 % (5:00 pm)
Barometer30.08 in30.20 in (11:00 pm)29.94 in (1:00 am)
Wind Speed7.3 mph11.5 mph (3:00 am)
Weather ElementAverage
Visibility23.9 mi
Wind DirectionS (185 °)

Weather ElementTotal
Precipitation---
Heating Degree Days9.6 (Base 65)
Growing Degree Days5.4 (Base 50)
Averaged from 28 records on May 17, 2013
WEATHER CONDITIONS BREAKOUT
WIND DIRECTION BREAKOUT
WEATHER BY HOUR - MAY 17, 2013
[ °C ]   °F
Local TimeTemperatureDewpointHumidityBarometerVisibilityWind DirectionWind SpeedGust SpeedPrecipitationEventsConditions
1:00 AM48.2 °F39.2 °F71 %29.94 in15.0 miWest (280°)8.1 mphMostly Cloudy
2:00 AM49.0 °F40.0 °F63 %29.94 in15.0 miWNW (290°)10.4 mphMostly Cloudy
2:00 AM48.2 °F41.0 °F76 %29.94 in15.0 miWNW (290°)9.2 mphMostly Cloudy
3:00 AM48.2 °F41.0 °F76 %29.96 in15.0 miWNW (290°)11.5 mphClear
4:00 AM46.4 °F41.0 °F81 %29.98 in15.0 miWNW (290°)8.1 mphClear
5:00 AM44.6 °F41.0 °F87 %30.00 in15.0 miWNW (290°)8.1 mphClear
6:00 AM44.6 °F41.0 °F87 %30.03 in15.0 miWNW (300°)6.9 mphClear
7:00 AM48.2 °F41.0 °F76 %30.06 in15.0 miNW (320°)8.1 mphClear
8:00 AM51.0 °F42.0 °F61 %30.08 in28.0 miNNW (340°)5.8 mphScattered Clouds
8:00 AM51.8 °F41.0 °F67 %30.08 in30.0 miNorth (10°)5.8 mphClear
9:00 AM53.6 °F41.0 °F62 %30.10 in30.0 miNW (310°)6.9 mphPartly Cloudy
10:00 AM55.4 °F41.0 °F58 %30.12 in30.0 miCalmPartly Cloudy
11:00 AM59.0 °F44.6 °F59 %30.12 in30.0 miSouth (190°)10.4 mphPartly Cloudy
12:00 PM59.0 °F42.8 °F55 %30.12 in30.0 miSouth (190°)11.5 mphScattered Clouds
1:00 PM62.6 °F42.8 °F48 %30.11 in30.0 miSW (220°)10.4 mphMostly Cloudy
1:29 PM59.0 °F41.0 °F51 %30.12 in30.0 miSSW (200°)8.1 mphRainLight Rain Showers
2:00 PM60.0 °F43.0 °F41 %30.12 in28.0 miEast (100°)4.6 mphPartly Cloudy
2:00 PM60.8 °F42.8 °F52 %30.12 in30.0 miEast (100°)3.5 mphMostly Cloudy
3:00 PM64.4 °F42.8 °F45 %30.11 in30.0 miSouth (180°)5.8 mphScattered Clouds
4:00 PM66.2 °F39.2 °F37 %30.10 in30.0 miWSW (240°)9.2 mphScattered Clouds
5:00 PM66.2 °F35.6 °F32 %30.11 in30.0 miSW (230°)5.8 mphMostly Cloudy
6:00 PM66.2 °F42.8 °F43 %30.12 in30.0 miNE (50°)6.9 mphScattered Clouds
7:00 PM64.4 °F39.2 °F40 %30.13 in30.0 miNE (40°)5.8 mphScattered Clouds
8:00 PM60.0 °F40.0 °F37 %30.15 in28.0 miENE (60°)8.1 mphScattered Clouds
8:00 PM59.0 °F41.0 °F51 %30.15 in30.0 miENE (60°)6.9 mphScattered Clouds
9:00 PM59.0 °F41.0 °F51 %30.17 in15.0 miNE (50°)10.4 mphPartly Cloudy
10:00 PM59.0 °F41.0 °F51 %30.19 in15.0 miSE (140°)3.5 mphPartly Cloudy
11:00 PM55.4 °F42.8 °F63 %30.20 in15.0 miESE (120°)3.5 mphClear
Hourly data recorded from CYUL, located miles away from Montreal, Quebec







STORIES FROM OUR PARTNERS